Burnet, TX

11:20 AM CST on December 14, 2017 (GMT -0600)
Burnet Municipal-Craddock

Weather History for KBMQ - September, 2011

Change the Weather History Date:

Sunday, September 11, 2011

  Actual Average Record
Temperature  
Mean Temperature 84 °F -  
Max Temperature 100 °F 87 °F 100 °F (2011)
Min Temperature 68 °F 67 °F 62 °F (2017)
Cooling Degree Days 18    
Growing Degree Days 34 (Base 50)    
Moisture  
Dew Point 43 °F    
Average Humidity 24    
Maximum Humidity 39    
Minimum Humidity 15    
Precipitation  
Precipitation 0.00 in - - ()
Sea Level Pressure  
Sea Level Pressure 30.04 in    
Wind  
Wind Speed 2 mph (NW)    
Max Wind Speed 10 mph    
Max Gust Speed -    
Visibility 10 miles    
Events      
Averages and records for this station are not official NWS values.
T = Trace of Precipitation, MM = Missing Value Source: NWS Daily Summary

Daily Weather History Graph

Daily Weather History Graph

Search for Another Location

Airport or City:

Trip Planner

Search our weather history database for the weather conditions in past years. The results will help you decide how hot, cold, wet, or windy it might be!

Date:

Astronomy

Sep. 11, 2011 Rise Set
Actual Time 7:14 AM CDT 7:43 PM CDT
Civil Twilight 6:50 AM CDT 8:08 PM CDT
Nautical Twilight 6:22 AM CDT 8:36 PM CDT
Astronomical Twilight 5:53 AM CDT 9:05 PM CDT
Moon 7:09 PM CDT (9/11) 6:34 AM CDT (9/11)
Length of Visible Light 13h 17m
Length of Day
12h 28m
Full, 100% of the Moon is Illuminated
Sep 11
Full
Sep 12
Full
Sep 20
Last Quarter
Sep 27
New
Oct 3
First Quarter

Hourly Weather History & Observations

Time (CDT) Temp. Dew Point Humidity Pressure Visibility Wind Dir Wind Speed Gust Speed Precip Events Conditions
12:53 AM 81.0 °F 37.0 °F 21% 30.04 in 10.0 mi Calm Calm - N/A   Clear
1:53 AM 81.0 °F 37.0 °F 21% 30.03 in 10.0 mi Calm Calm - N/A   Clear
2:53 AM 79.0 °F 37.0 °F 22% 30.02 in 10.0 mi Calm Calm - N/A   Clear
3:53 AM 75.0 °F 37.0 °F 25% 30.02 in 10.0 mi Calm Calm - N/A   Clear
4:53 AM 73.0 °F 37.9 °F 28% 30.03 in 10.0 mi NNE 3.5 mph - N/A   Clear
5:53 AM 70.0 °F 39.0 °F 32% 30.03 in 10.0 mi Calm Calm - N/A   Clear
6:53 AM 68.0 °F 39.9 °F 36% 30.05 in 10.0 mi Calm Calm - N/A   Clear
7:53 AM 68.0 °F 42.1 °F 39% 30.08 in 10.0 mi Calm Calm - N/A   Clear
8:53 AM 77.0 °F 46.9 °F 34% 30.08 in 10.0 mi Calm Calm - N/A   Clear
9:53 AM 84.9 °F 51.1 °F 31% 30.09 in 10.0 mi West 9.2 mph - N/A   Clear
10:53 AM 87.1 °F 51.1 °F 29% 30.10 in 10.0 mi West 10.4 mph - N/A   Clear
11:53 AM 91.9 °F 48.9 °F 23% 30.09 in 10.0 mi WNW 10.4 mph - N/A   Clear
12:53 PM 95.0 °F 46.9 °F 19% 30.07 in 10.0 mi Calm Calm - N/A   Clear
1:53 PM 96.1 °F 45.0 °F 17% 30.05 in 10.0 mi Calm Calm - N/A   Clear
2:53 PM 98.1 °F 43.0 °F 15% 30.02 in 10.0 mi Variable 5.8 mph - N/A   Clear
3:53 PM 98.1 °F 43.0 °F 15% 30.00 in - Variable 3.5 mph - N/A   Unknown
4:53 PM 99.0 °F 43.0 °F 15% 29.98 in 10.0 mi Variable 3.5 mph - N/A   Scattered Clouds
5:53 PM 99.0 °F 44.1 °F 15% 29.97 in 10.0 mi NW 3.5 mph - N/A   Clear
6:53 PM 98.1 °F 43.0 °F 15% 29.98 in 10.0 mi ENE 3.5 mph - N/A   Unknown
8:53 PM 88.0 °F 45.0 °F 22% 30.00 in 10.0 mi Calm Calm - N/A   Clear
9:53 PM 86.0 °F 45.0 °F 24% 30.03 in 10.0 mi Calm Calm - N/A   Clear
11:53 PM 80.1 °F 46.9 °F 31% 30.04 in 10.0 mi Calm Calm - N/A   Unknown